Simultaneous Nadir Overpasses (SNOs) Predictions

Prediction of SNOs between NOAA-20 and AQUA Satellite Orbit:

Table of predicted SNOs for the next 14.0 days since TLE Epoch: 5/10/2025
Index Date (NOAA-20) Time (NOAA-20) Lat,Lon (NOAA-20) SZA (NOAA-20 ) Date (AQUA) Time (AQUA) Lat,Lon (AQUA) SZA (AQUA ) Distance(km) Time Diff (sec)
1 05/10/2025 16:32:14 81.30,-134.89 68.81 05/10/2025 16:32:40 81.30,-135.08 68.83 3.32 26
2 05/10/2025 17:23:00 -81.30, 32.19 111.17 05/10/2025 17:21:59 -81.29, 32.29 111.15 1.96 61
3 05/13/2025 02:03:12 81.30, 82.16 68.25 05/13/2025 02:03:51 81.30, 82.04 68.24 1.99 39
4 05/13/2025 02:53:57 -81.30,-110.35 111.79 05/13/2025 02:53:09 -81.30,-110.17 111.79 2.99 48
5 05/15/2025 11:34:10 81.30, -60.83 67.71 05/15/2025 11:35:01 81.29, -60.80 67.68 1.01 51
6 05/15/2025 12:24:54 -81.30, 107.08 112.38 05/15/2025 12:24:19 -81.30, 107.02 112.35 1.04 35
7 05/17/2025 21:05:07 81.30, 156.54 67.16 05/17/2025 21:06:10 81.29, 156.40 67.14 2.62 63
8 05/17/2025 21:55:52 -81.30, -35.92 112.88 05/17/2025 21:55:28 -81.30, -35.75 112.89 2.88 24
9 05/20/2025 06:36:05 81.30, 13.49 66.71 05/20/2025 06:37:18 81.29, 13.65 66.64 3.07 73
10 05/20/2025 07:26:49 -81.30,-178.57 113.40 05/20/2025 07:26:36 -81.30,-178.48 113.40 1.47 13



Historial Predications of SNOs between NOAA-20 and AQUA
